This demonstration page uses our WeatherBlox Daily Observations layout. Learn more.

Left ArrowRight Arrow

Hourly Observations for June 24, 2018

Temp ( °F °C ) Dew Point ( °F °C ) Humidity (%) Winds ( mph kmh ) Pressure ( in mb ) Visibility ( mi km ) Precip ( " mm )
12:53 am 00:53 Cloudy 62 16.7 57 13.9 84 84 SW 8 13 29.88 1012 10 16 0.00 0.00
1:53 am 01:53 Mostly Cloudy 60 15.6 57 13.9 90 90 SW 12 19 29.88 1012 10 16 0.00 0.00
2:53 am 02:53 Mostly Cloudy 59 15 57 13.9 93 93 SW 8 13 29.90 1013 10 16 0.00 0.00
3:53 am 03:53 Mostly Cloudy 57 13.9 56 13.3 96 96 SW 6 9 29.90 1013 10 16 0.00 0.00
4:53 am 04:53 Cloudy 58 14.4 56 13.3 93 93 WSW 8 13 29.94 1014 10 16 0.00 0.00
5:53 am 05:53 Cloudy 58 14.4 57 13.9 97 97 SW 9 15 29.95 1014 10 16 0.00 0.00
6:13 am 06:13 Cloudy 59 15 58 14.4 96 96 WSW 9 15 29.97 1015 10 16 0.00 0.00
6:32 am 06:32 Cloudy 61 16 57 14 88 88 W 5 7 29.94 1014 10 16 0.00 0.00
6:53 am 06:53 Cloudy 60 15.6 59 15 96 96 SW 5 7 29.98 1015 10 16 0.00 0.00
7:53 am 07:53 Cloudy 61 16.1 59 15 93 93 WSW 6 9 29.98 1015 9 14 0.00 0.00
8:53 am 08:53 Cloudy 64 17.8 59 15 84 84 WSW 9 15 29.99 1016 9 14 0.00 0.00
9:11 am 09:11 Mostly Cloudy 65 18.3 60 15.6 84 84 W 9 15 29.97 1015 10 16 0.00 0.00
9:36 am 09:36 Mostly Cloudy 65 18.3 59 15 81 81 W 7 11 29.97 1015 10 16 0.00 0.00
9:53 am 09:53 Partly Cloudy 66 18.9 58 14.4 75 75 W 8 13 29.99 1016 10 16 0.00 0.00
10:53 am 10:53 Mostly Cloudy 68 20 58 14.4 70 70 WSW 8 13 30.00 1016 10 16 0.00 0.00
11:53 am 11:53 Cloudy 71 21.7 57 13.9 61 61 W 9 15 30.00 1016 10 16 0.00 0.00
12:53 pm 12:53 Partly Cloudy 75 23.9 56 13.3 52 52 WSW 7 11 29.97 1015 10 16 0.00 0.00
1:53 pm 13:53 Mostly Cloudy 76 24.4 55 12.8 48 48 WSW 7 11 29.96 1014 10 16 0.00 0.00
2:53 pm 14:53 Cloudy 74 23.3 57 13.9 56 56 N 7 11 29.96 1015 10 16 0.00 0.00
3:53 pm 15:53 Cloudy 68 20 62 16.7 81 81 WSW 10 17 29.99 1016 10 16 0.01 0.25
4:53 pm 16:53 Partly Cloudy 70 21.1 62 16.7 76 76 SSW 8 13 29.98 1015 10 16 0.00 0.00
5:53 pm 17:53 Sunny 75 23.9 59 15 58 58 SW 7 11 29.96 1015 10 16 0.00 0.00
6:53 pm 18:53 Sunny 74 23.3 59 15 60 60 SSW 8 13 29.95 1014 10 16 0.00 0.00
7:53 pm 19:53 Sunny 73 22.8 58 14.4 59 59 SSE 5 7 29.93 1014 10 16 0.00 0.00
8:53 pm 20:53 Sunny 71 21.7 58 14.4 63 63 S 5 7 29.93 1014 10 16 0.00 0.00
9:53 pm 21:53 Clear 65 18.3 59 15 81 81 SSE 5 7 29.94 1014 10 16 0.00 0.00
10:53 pm 22:53 Clear 62 16.7 58 14.4 86 86 SE 3 6 29.94 1014 10 16 0.00 0.00
11:53 pm 23:53 Clear 60 15.6 56 13.3 86 86 Calm 29.93 1013 10 16 0.00 0.00

Powered by AerisWeather